QPF
0.00 0.01 0.00 0.00 0.00 0.00 0.00 0.01 0.01 0.02 0.03 0.02 0.01 0.01 0.01 0.01 0.01 0.01 0.01 0.01 0.01 0.01 0.02 0.02 0.02 0.03 0.03 0.02 0.03 0.02 0.02 0.02 0.03 0.03 0.04 0.03 0.02 0.02 0.01 0.01 0.01 0.01 0.01 0.02
0.00 0.01 0.01 0.00 0.00 0.01 0.01 0.01 0.01 0.01 0.03 0.03 0.02 0.00 0.01 0.01 0.01 0.02 0.01 0.01 0.01 0.01 0.02 0.03 0.03 0.03 0.02 0.02 0.03 0.03 0.03 0.03 0.03 0.03 0.03 0.03 0.02 0.02 0.01 0.01 0.01 0.01 0.01 0.02
0.00 0.00 0.01 0.01 0.01 0.01 0.01 0.01 0.02 0.02 0.02 0.03 0.03 0.01 0.01 0.01 0.01 0.02 0.01 0.01 0.01 0.01 0.02 0.02 0.02 0.02 0.01 0.01 0.01 0.02 0.02 0.02 0.02 0.02 0.02 0.03 0.03 0.02 0.01 0.01 0.01 0.01 0.01 0.02
0.00 0.00 0.01 0.01 0.01 0.01 0.01 0.01 0.02 0.02 0.03 0.02 0.03 0.02 0.01 0.01 0.01 0.02 0.02 0.01 0.01 0.01 0.01 0.02 0.02 0.02 0.01 0.01 0.01 0.02 0.02 0.02 0.02 0.02 0.02 0.03 0.03 0.02 0.02 0.01 0.01 0.01 0.01 0.01
0.00 0.01 0.01 0.01 0.00 0.01 0.01 0.01 0.01 0.02 0.02 0.02 0.02 0.01 0.01 0.01 0.01 0.01 0.02 0.02 0.02 0.01 0.02 0.02 0.01 0.01 0.01 0.01 0.02 0.04 0.05 0.04 0.03 0.03 0.04 0.05 0.06 0.04 0.02 0.02 0.02 0.02 0.02 0.02
0.00 0.00 0.00 0.00 0.00 0.00 0.01 0.02 0.01 0.01 0.01 0.01 0.01 0.01 0.01 0.01 0.01 0.01 0.01 0.02 0.03 0.02 0.02 0.01 0.01 0.01 0.01 0.01 0.01 0.03 0.06 0.07 0.06 0.05 0.06 0.07 0.06 0.04 0.02 0.01 0.01 0.01 0.02 0.02
0.00 0.00 0.00 0.00 0.00 0.00 0.01 0.01 0.01 0.00 0.01 0.01 0.01 0.01 0.01 0.01 0.01 0.01 0.01 0.01 0.01 0.01 0.01 0.01 0.00 0.01 0.01 0.01 0.01 0.02 0.03 0.03 0.03 0.03 0.05 0.06 0.04 0.03 0.02 0.01 0.01 0.02 0.03 0.03
0.01 0.01 0.00 0.00 0.00 0.00 0.01 0.00 0.01 0.01 0.01 0.01 0.01 0.01 0.01 0.01 0.01 0.01 0.00 0.00 0.00 0.00 0.00 0.00 0.00 0.00 0.01 0.01 0.01 0.01 0.01 0.02 0.02 0.02 0.04 0.05 0.04 0.04 0.04 0.04 0.05 0.06 0.07 0.08
0.01 0.01 0.01 0.00 0.00 0.00 0.00 0.00 0.00 0.00 0.00 0.01 0.01 0.01 0.01 0.01 0.01 0.01 0.00 0.00 0.00 0.00 0.00 0.00 0.00 0.00 0.00 0.00 0.01 0.01 0.01 0.02 0.02 0.02 0.04 0.06 0.05 0.05 0.09 0.11 0.11 0.12 0.12 0.12
0.01 0.01 0.00 0.00 0.00 0.00 0.01 0.01 0.00 0.00 0.00 0.00 0.00 0.01 0.01 0.01 0.01 0.01 0.01 0.00 0.00 0.00 0.01 0.01 0.01 0.01 0.01 0.01 0.01 0.02 0.02 0.03 0.03 0.03 0.04 0.06 0.09 0.09 0.08 0.11 0.15 0.13 0.11 0.11
0.02 0.01 0.01 0.01 0.01 0.00 0.00 0.00 0.01 0.01 0.01 0.01 0.01 0.01 0.01 0.01 0.01 0.01 0.01 0.01 0.01 0.01 0.01 0.01 0.02 0.03 0.02 0.01 0.01 0.01 0.02 0.02 0.03 0.02 0.02 0.02 0.02 0.04 0.04 0.03 0.04 0.04 0.03 0.04
0.01 0.01 0.01 0.01 0.01 0.00 0.00 0.00 0.01 0.00 0.00 0.00 0.01 0.01 0.02 0.02 0.02 0.02 0.01 0.02 0.02 0.02 0.02 0.02 0.03 0.03 0.02 0.02 0.02 0.02 0.02 0.02 0.01 0.01 0.01 0.01 0.01 0.01 0.01 0.01 0.01 0.01 0.01 0.02
0.01 0.01 0.01 0.00 0.00 0.00 0.00 0.00 0.00 0.00 0.00 0.00 0.01 0.01 0.02 0.02 0.02 0.01 0.01 0.02 0.02 0.01 0.01 0.03 0.04 0.03 0.03 0.03 0.03 0.02 0.02 0.02 0.02 0.02 0.01 0.01 0.01 0.02 0.02 0.01 0.01 0.01 0.02 0.01
0.01 0.01 0.00 0.00 0.00 0.01 0.00 0.00 0.00 0.00 0.01 0.01 0.01 0.01 0.01 0.01 0.01 0.01 0.01 0.02 0.02 0.01 0.01 0.02 0.03 0.04 0.04 0.03 0.02 0.02 0.01 0.01 0.02 0.02 0.02 0.01 0.02 0.03 0.02 0.01 0.01 0.02 0.03 0.02
0.01 0.01 0.01 0.00 0.00 0.01 0.01 0.01 0.01 0.01 0.02 0.02 0.02 0.01 0.01 0.01 0.01 0.01 0.02 0.01 0.01 0.01 0.02 0.02 0.03 0.03 0.03 0.02 0.02 0.02 0.01 0.01 0.01 0.02 0.02 0.01 0.02 0.02 0.02 0.01 0.01 0.01 0.03 0.02
0.01 0.01 0.01 0.01 0.01 0.01 0.01 0.02 0.03 0.03 0.04 0.04 0.02 0.02 0.02 0.01 0.01 0.01 0.02 0.01 0.01 0.01 0.02 0.02 0.04 0.04 0.03 0.02 0.02 0.02 0.02 0.02 0.01 0.01 0.02 0.02 0.02 0.02 0.02 0.02 0.01 0.01 0.02 0.02
0.01 0.01 0.02 0.01 0.01 0.01 0.01 0.02 0.03 0.04 0.05 0.04 0.03 0.03 0.02 0.02 0.01 0.01 0.02 0.02 0.02 0.03 0.02 0.03 0.03 0.04 0.04 0.03 0.03 0.02 0.02 0.02 0.01 0.01 0.02 0.02 0.02 0.02 0.02 0.02 0.01 0.01 0.02 0.02
0.01 0.01 0.02 0.01 0.01 0.01 0.01 0.02 0.03 0.03 0.04 0.04 0.03 0.03 0.03 0.02 0.02 0.02 0.02 0.02 0.03 0.02 0.02 0.02 0.02 0.02 0.02 0.03 0.03 0.03 0.02 0.01 0.01 0.02 0.02 0.02 0.02 0.02 0.02 0.02 0.01 0.01 0.01 0.01
0.02 0.02 0.03 0.02 0.01 0.01 0.01 0.01 0.02 0.02 0.02 0.02 0.02 0.03 0.04 0.03 0.03 0.02 0.01 0.02 0.01 0.02 0.02 0.01 0.01 0.01 0.01 0.01 0.02 0.01 0.01 0.01 0.01 0.01 0.01 0.02 0.02 0.02 0.02 0.01 0.01 0.01 0.01 0.01
0.04 0.04 0.05 0.04 0.03 0.03 0.02 0.02 0.03 0.02 0.02 0.02 0.03 0.03 0.04 0.04 0.04 0.03 0.02 0.02 0.02 0.02 0.01 0.01 0.01 0.01 0.00 0.01 0.01 0.00 0.00 0.00 0.01 0.01 0.01 0.01 0.02 0.02 0.02 0.02 0.02 0.01 0.01 0.01
0.04 0.05 0.06 0.06 0.05 0.04 0.04 0.04 0.04 0.04 0.04 0.05 0.04 0.04 0.05 0.05 0.04 0.04 0.03 0.03 0.02 0.01 0.01 0.01 0.01 0.01 0.01 0.00 0.01 0.01 0.01 0.01 0.01 0.01 0.02 0.03 0.03 0.03 0.02 0.02 0.02 0.01 0.01 0.01
0.03 0.03 0.04 0.04 0.04 0.04 0.03 0.03 0.03 0.04 0.04 0.06 0.05 0.05 0.05 0.05 0.04 0.04 0.04 0.04 0.03 0.01 0.00 0.01 0.01 0.01 0.01 0.01 0.01 0.02 0.02 0.02 0.02 0.02 0.03 0.03 0.04 0.04 0.04 0.04 0.03 0.02 0.01 0.01
0.04 0.03 0.03 0.04 0.05 0.05 0.04 0.03 0.03 0.03 0.03 0.04 0.05 0.05 0.05 0.05 0.04 0.03 0.05 0.05 0.04 0.02 0.01 0.01 0.01 0.01 0.02 0.02 0.02 0.02 0.03 0.03 0.04 0.04 0.04 0.04 0.04 0.04 0.04 0.04 0.03 0.03 0.02 0.02
0.03 0.03 0.03 0.03 0.03 0.04 0.05 0.04 0.04 0.03 0.03 0.04 0.05 0.06 0.06 0.06 0.06 0.05 0.05 0.05 0.04 0.03 0.03 0.03 0.03 0.02 0.02 0.02 0.02 0.02 0.02 0.03 0.04 0.04 0.04 0.04 0.04 0.04 0.03 0.02 0.02 0.02 0.02 0.02
0.02 0.02 0.03 0.02 0.03 0.03 0.06 0.06 0.04 0.03 0.02 0.02 0.03 0.03 0.03 0.04 0.04 0.04 0.04 0.04 0.04 0.04 0.04 0.04 0.04 0.03 0.02 0.02 0.02 0.02 0.02 0.03 0.02 0.01 0.01 0.02 0.02 0.03 0.02 0.02 0.01 0.01 0.01 0.01
0.02 0.02 0.02 0.03 0.03 0.04 0.06 0.04 0.04 0.04 0.03 0.02 0.02 0.02 0.02 0.02 0.02 0.02 0.02 0.02 0.02 0.03 0.03 0.02 0.02 0.01 0.01 0.01 0.01 0.02 0.02 0.02 0.01 0.01 0.01 0.01 0.01 0.02 0.02 0.02 0.02 0.02 0.02 0.01
0.02 0.02 0.02 0.03 0.03 0.04 0.04 0.04 0.03 0.03 0.02 0.02 0.02 0.02 0.01 0.01 0.02 0.02 0.02 0.02 0.01 0.02 0.02 0.02 0.02 0.01 0.01 0.01 0.02 0.02 0.03 0.03 0.02 0.01 0.01 0.01 0.01 0.02 0.03 0.02 0.02 0.02 0.02 0.01
MSLP
1006.58 1006.96 1007.30 1007.56 1007.73 1007.79 1007.75 1007.62 1007.43 1007.23 1007.06 1006.98 1007.02 1007.21 1007.54 1008.00 1008.55 1009.13 1009.70 1010.19 1010.57 1010.82 1010.95 1010.97 1010.91 1010.82 1010.71 1010.62 1010.57 1010.54 1010.52 1010.50 1010.44 1010.34 1010.18 1009.97 1009.71 1009.42 1009.12 1008.82 1008.54 1008.27 1008.00 1007.72
1006.78 1007.15 1007.43 1007.59 1007.63 1007.54 1007.34 1007.07 1006.77 1006.49 1006.29 1006.21 1006.28 1006.52 1006.90 1007.41 1007.99 1008.60 1009.17 1009.67 1010.06 1010.32 1010.47 1010.53 1010.52 1010.48 1010.44 1010.41 1010.40 1010.41 1010.42 1010.41 1010.35 1010.25 1010.08 1009.86 1009.60 1009.31 1009.01 1008.71 1008.43 1008.15 1007.88 1007.58
1007.07 1007.42 1007.64 1007.71 1007.63 1007.40 1007.07 1006.67 1006.27 1005.92 1005.68 1005.59 1005.66 1005.92 1006.33 1006.85 1007.44 1008.04 1008.60 1009.08 1009.46 1009.72 1009.89 1009.98 1010.02 1010.04 1010.06 1010.09 1010.13 1010.17 1010.19 1010.19 1010.13 1010.01 1009.83 1009.60 1009.33 1009.03 1008.74 1008.44 1008.16 1007.88 1007.59 1007.28
1007.39 1007.70 1007.86 1007.85 1007.67 1007.34 1006.90 1006.41 1005.94 1005.53 1005.26 1005.15 1005.23 1005.49 1005.89 1006.40 1006.97 1007.54 1008.07 1008.52 1008.88 1009.14 1009.32 1009.45 1009.53 1009.60 1009.67 1009.75 1009.83 1009.89 1009.91 1009.89 1009.81 1009.66 1009.46 1009.20 1008.91 1008.62 1008.32 1008.03 1007.75 1007.48 1007.19 1006.87
1007.64 1007.90 1008.01 1007.93 1007.68 1007.28 1006.78 1006.24 1005.73 1005.30 1005.02 1004.91 1004.99 1005.24 1005.64 1006.13 1006.67 1007.20 1007.69 1008.11 1008.45 1008.70 1008.90 1009.05 1009.17 1009.28 1009.40 1009.50 1009.59 1009.65 1009.66 1009.60 1009.48 1009.28 1009.03 1008.74 1008.43 1008.12 1007.82 1007.54 1007.28 1007.02 1006.75 1006.44
1007.75 1007.94 1007.99 1007.87 1007.58 1007.15 1006.64 1006.10 1005.60 1005.19 1004.94 1004.85 1004.95 1005.21 1005.60 1006.07 1006.57 1007.07 1007.53 1007.92 1008.23 1008.49 1008.69 1008.86 1009.02 1009.17 1009.30 1009.42 1009.50 1009.53 1009.50 1009.39 1009.19 1008.93 1008.62 1008.28 1007.94 1007.62 1007.32 1007.06 1006.82 1006.59 1006.34 1006.05
1007.66 1007.78 1007.77 1007.62 1007.32 1006.91 1006.43 1005.94 1005.50 1005.17 1004.98 1004.95 1005.09 1005.38 1005.77 1006.23 1006.72 1007.19 1007.61 1007.98 1008.28 1008.54 1008.75 1008.94 1009.12 1009.28 1009.42 1009.53 1009.59 1009.57 1009.47 1009.28 1009.00 1008.66 1008.28 1007.88 1007.50 1007.16 1006.86 1006.62 1006.42 1006.23 1006.03 1005.78
1007.37 1007.41 1007.35 1007.18 1006.90 1006.54 1006.14 1005.76 1005.43 1005.21 1005.12 1005.18 1005.39 1005.72 1006.14 1006.60 1007.08 1007.53 1007.93 1008.28 1008.57 1008.83 1009.05 1009.25 1009.43 1009.60 1009.73 1009.82 1009.82 1009.74 1009.56 1009.28 1008.91 1008.48 1008.01 1007.55 1007.13 1006.77 1006.48 1006.27 1006.10 1005.97 1005.82 1005.62
1006.93 1006.90 1006.79 1006.62 1006.39 1006.11 1005.83 1005.57 1005.39 1005.31 1005.36 1005.53 1005.83 1006.21 1006.66 1007.14 1007.60 1008.04 1008.42 1008.75 1009.04 1009.29 1009.51 1009.71 1009.90 1010.05 1010.16 1010.20 1010.15 1010.00 1009.73 1009.35 1008.88 1008.36 1007.81 1007.28 1006.82 1006.44 1006.16 1005.97 1005.85 1005.77 1005.69 1005.55
1006.43 1006.32 1006.19 1006.03 1005.86 1005.68 1005.53 1005.43 1005.42 1005.49 1005.68 1005.97 1006.36 1006.80 1007.28 1007.76 1008.22 1008.63 1009.00 1009.31 1009.58 1009.82 1010.03 1010.22 1010.40 1010.53 1010.61 1010.60 1010.49 1010.26 1009.90 1009.43 1008.87 1008.25 1007.63 1007.05 1006.54 1006.14 1005.86 1005.69 1005.61 1005.59 1005.57 1005.51
1005.94 1005.78 1005.63 1005.51 1005.41 1005.35 1005.34 1005.40 1005.54 1005.77 1006.09 1006.49 1006.95 1007.44 1007.94 1008.42 1008.85 1009.24 1009.57 1009.84 1010.08 1010.30 1010.49 1010.67 1010.82 1010.92 1010.96 1010.90 1010.73 1010.43 1010.00 1009.45 1008.81 1008.13 1007.44 1006.80 1006.26 1005.84 1005.55 1005.40 1005.35 1005.37 1005.41 1005.41
1005.54 1005.36 1005.23 1005.15 1005.14 1005.19 1005.31 1005.51 1005.80 1006.16 1006.59 1007.07 1007.57 1008.08 1008.57 1009.02 1009.42 1009.75 1010.03 1010.26 1010.46 1010.64 1010.80 1010.94 1011.06 1011.13 1011.13 1011.03 1010.81 1010.46 1009.97 1009.36 1008.67 1007.93 1007.20 1006.53 1005.95 1005.52 1005.22 1005.07 1005.04 1005.09 1005.17 1005.22
1005.29 1005.11 1005.01 1005.00 1005.07 1005.22 1005.46 1005.78 1006.18 1006.63 1007.13 1007.65 1008.17 1008.67 1009.13 1009.52 1009.86 1010.12 1010.34 1010.51 1010.65 1010.78 1010.90 1011.00 1011.08 1011.12 1011.08 1010.95 1010.69 1010.30 1009.78 1009.15 1008.43 1007.67 1006.92 1006.22 1005.63 1005.18 1004.88 1004.72 1004.69 1004.75 1004.85 1004.94
1005.20 1005.05 1005.00 1005.05 1005.20 1005.45 1005.78 1006.18 1006.65 1007.15 1007.68 1008.21 1008.71 1009.17 1009.56 1009.88 1010.14 1010.32 1010.46 1010.56 1010.63 1010.71 1010.77 1010.83 1010.87 1010.87 1010.81 1010.65 1010.38 1009.98 1009.45 1008.82 1008.10 1007.35 1006.60 1005.91 1005.32 1004.86 1004.55 1004.38 1004.34 1004.39 1004.49 1004.59
1005.26 1005.17 1005.18 1005.29 1005.51 1005.82 1006.21 1006.66 1007.16 1007.68 1008.20 1008.70 1009.15 1009.53 1009.84 1010.08 1010.24 1010.34 1010.39 1010.42 1010.42 1010.43 1010.45 1010.46 1010.47 1010.44 1010.35 1010.18 1009.91 1009.51 1009.01 1008.40 1007.71 1006.99 1006.27 1005.61 1005.03 1004.58 1004.26 1004.08 1004.02 1004.05 1004.14 1004.24
1005.46 1005.43 1005.50 1005.67 1005.93 1006.28 1006.70 1007.16 1007.66 1008.15 1008.63 1009.07 1009.45 1009.75 1009.97 1010.12 1010.19 1010.20 1010.18 1010.12 1010.07 1010.02 1009.98 1009.95 1009.92 1009.86 1009.76 1009.58 1009.32 1008.95 1008.48 1007.91 1007.28 1006.61 1005.95 1005.33 1004.78 1004.35 1004.03 1003.84 1003.77 1003.78 1003.84 1003.93
1005.78 1005.82 1005.94 1006.14 1006.43 1006.78 1007.19 1007.64 1008.09 1008.54 1008.95 1009.31 1009.61 1009.82 1009.96 1010.02 1010.01 1009.94 1009.84 1009.73 1009.61 1009.51 1009.42 1009.35 1009.28 1009.20 1009.08 1008.91 1008.65 1008.31 1007.88 1007.38 1006.81 1006.21 1005.60 1005.04 1004.55 1004.15 1003.85 1003.66 1003.57 1003.56 1003.61 1003.68
1006.22 1006.29 1006.44 1006.66 1006.95 1007.28 1007.65 1008.04 1008.43 1008.81 1009.14 1009.42 1009.62 1009.76 1009.81 1009.80 1009.72 1009.59 1009.44 1009.27 1009.11 1008.96 1008.84 1008.72 1008.62 1008.51 1008.38 1008.19 1007.95 1007.63 1007.24 1006.78 1006.28 1005.75 1005.22 1004.72 1004.28 1003.93 1003.66 1003.49 1003.40 1003.39 1003.42 1003.48
1006.73 1006.83 1006.99 1007.20 1007.45 1007.73 1008.04 1008.36 1008.66 1008.95 1009.19 1009.39 1009.51 1009.57 1009.56 1009.49 1009.37 1009.20 1009.01 1008.80 1008.60 1008.42 1008.26 1008.11 1007.97 1007.82 1007.66 1007.46 1007.21 1006.91 1006.55 1006.13 1005.68 1005.21 1004.75 1004.32 1003.94 1003.63 1003.40 1003.26 1003.19 1003.19 1003.24 1003.31
1007.27 1007.38 1007.53 1007.70 1007.90 1008.12 1008.34 1008.57 1008.78 1008.98 1009.13 1009.24 1009.30 1009.30 1009.24 1009.12 1008.97 1008.77 1008.56 1008.33 1008.11 1007.90 1007.70 1007.52 1007.34 1007.16 1006.96 1006.73 1006.47 1006.16 1005.81 1005.42 1005.00 1004.58 1004.16 1003.79 1003.46 1003.21 1003.03 1002.93 1002.90 1002.93 1003.00 1003.11
1007.78 1007.89 1008.01 1008.14 1008.27 1008.40 1008.54 1008.67 1008.79 1008.89 1008.96 1009.00 1008.99 1008.94 1008.84 1008.70 1008.53 1008.32 1008.09 1007.86 1007.62 1007.39 1007.17 1006.95 1006.74 1006.51 1006.28 1006.02 1005.72 1005.39 1005.03 1004.65 1004.24 1003.85 1003.47 1003.14 1002.86 1002.65 1002.52 1002.47 1002.49 1002.57 1002.69 1002.85
1008.19 1008.29 1008.37 1008.45 1008.51 1008.56 1008.61 1008.65 1008.67 1008.69 1008.68 1008.65 1008.60 1008.51 1008.38 1008.23 1008.04 1007.83 1007.61 1007.37 1007.13 1006.89 1006.65 1006.41 1006.16 1005.90 1005.62 1005.32 1004.99 1004.64 1004.25 1003.86 1003.45 1003.07 1002.71 1002.40 1002.16 1001.99 1001.91 1001.91 1001.98 1002.12 1002.31 1002.53
1008.43 1008.51 1008.56 1008.59 1008.58 1008.56 1008.53 1008.48 1008.43 1008.37 1008.30 1008.22 1008.12 1008.00 1007.86 1007.69 1007.51 1007.30 1007.08 1006.85 1006.61 1006.37 1006.12 1005.86 1005.59 1005.31 1005.00 1004.67 1004.31 1003.92 1003.52 1003.10 1002.69 1002.30 1001.96 1001.67 1001.45 1001.32 1001.27 1001.32 1001.44 1001.64 1001.89 1002.18
1008.44 1008.51 1008.54 1008.52 1008.47 1008.38 1008.28 1008.17 1008.06 1007.94 1007.82 1007.69 1007.56 1007.42 1007.26 1007.09 1006.91 1006.71 1006.51 1006.29 1006.06 1005.82 1005.58 1005.31 1005.04 1004.74 1004.42 1004.07 1003.69 1003.29 1002.87 1002.45 1002.03 1001.64 1001.30 1001.03 1000.83 1000.72 1000.71 1000.79 1000.97 1001.21 1001.53 1001.88
1008.23 1008.29 1008.29 1008.24 1008.15 1008.03 1007.88 1007.73 1007.57 1007.41 1007.25 1007.10 1006.94 1006.78 1006.62 1006.45 1006.27 1006.08 1005.89 1005.68 1005.47 1005.25 1005.02 1004.77 1004.50 1004.21 1003.90 1003.55 1003.18 1002.78 1002.36 1001.95 1001.54 1001.16 1000.83 1000.57 1000.39 1000.31 1000.32 1000.43 1000.64 1000.92 1001.28 1001.68
1007.82 1007.87 1007.85 1007.78 1007.67 1007.52 1007.36 1007.18 1006.99 1006.81 1006.64 1006.47 1006.30 1006.13 1005.96 1005.79 1005.62 1005.44 1005.25 1005.07 1004.87 1004.68 1004.47 1004.24 1004.00 1003.74 1003.45 1003.13 1002.79 1002.42 1002.03 1001.64 1001.26 1000.91 1000.61 1000.37 1000.22 1000.15 1000.18 1000.31 1000.53 1000.84 1001.21 1001.64
1007.28 1007.31 1007.28 1007.21 1007.08 1006.93 1006.76 1006.58 1006.39 1006.21 1006.03 1005.85 1005.68 1005.51 1005.34 1005.17 1005.00 1004.83 1004.66 1004.49 1004.32 1004.14 1003.96 1003.77 1003.57 1003.35 1003.10 1002.83 1002.53 1002.21 1001.88 1001.54 1001.21 1000.90 1000.64 1000.44 1000.31 1000.27 1000.31 1000.45 1000.68 1000.98 1001.35 1001.77
Thickness
5779 5785 5784 5782 5783 5786 5783 5785 5780 5786 5790 5796 5800 5798 5798 5797 5797 5794 5791 5789 5787 5785 5782 5780 5778 5776 5774 5772 5769 5765 5760 5756 5753 5752 5749 5746 5743 5740 5737 5734 5733 5729 5727 5725
5764 5773 5775 5771 5777 5780 5780 5783 5783 5783 5785 5799 5798 5796 5790 5789 5788 5785 5783 5782 5781 5779 5776 5774 5772 5770 5767 5765 5762 5758 5754 5750 5748 5746 5743 5740 5737 5734 5731 5728 5726 5723 5720 5718
5753 5764 5760 5754 5770 5773 5774 5780 5779 5774 5781 5789 5784 5782 5781 5780 5779 5779 5778 5777 5775 5773 5772 5770 5768 5765 5762 5760 5757 5752 5748 5745 5743 5740 5737 5734 5732 5728 5725 5723 5720 5716 5713 5711
5749 5744 5727 5762 5781 5777 5771 5773 5778 5779 5781 5780 5778 5779 5780 5779 5775 5774 5774 5772 5770 5769 5767 5766 5764 5761 5758 5755 5751 5746 5743 5740 5737 5733 5731 5728 5725 5721 5719 5716 5712 5709 5705 5703
5740 5735 5741 5756 5765 5765 5760 5759 5771 5770 5771 5773 5774 5772 5772 5775 5773 5771 5770 5768 5765 5764 5763 5761 5758 5755 5752 5748 5745 5741 5737 5733 5731 5727 5723 5720 5717 5713 5711 5708 5704 5702 5699 5696
5734 5726 5725 5747 5760 5766 5757 5745 5761 5762 5761 5764 5764 5758 5762 5767 5767 5765 5764 5762 5760 5759 5757 5753 5751 5749 5745 5742 5738 5734 5731 5728 5725 5722 5718 5714 5710 5707 5705 5701 5698 5695 5692 5689
5725 5725 5737 5747 5755 5754 5733 5737 5751 5755 5756 5757 5756 5758 5760 5761 5759 5757 5755 5754 5753 5751 5748 5745 5744 5742 5737 5734 5730 5728 5725 5721 5718 5715 5712 5709 5704 5700 5697 5694 5690 5687 5684 5681
5719 5716 5723 5740 5743 5735 5733 5742 5746 5748 5750 5750 5752 5753 5753 5751 5750 5749 5747 5747 5745 5742 5739 5738 5737 5733 5729 5725 5723 5720 5716 5713 5710 5707 5705 5702 5697 5692 5689 5685 5682 5679 5675 5673
5718 5719 5726 5734 5732 5732 5735 5734 5737 5740 5744 5745 5745 5744 5743 5742 5741 5740 5740 5739 5738 5735 5731 5729 5728 5725 5721 5717 5715 5712 5708 5704 5702 5699 5696 5693 5689 5686 5682 5678 5677 5674 5670 5667
5707 5715 5720 5723 5725 5726 5727 5727 5731 5733 5736 5738 5737 5737 5736 5735 5733 5732 5732 5731 5730 5727 5723 5720 5719 5717 5713 5710 5707 5704 5700 5697 5694 5691 5688 5685 5682 5680 5676 5672 5669 5666 5663 5659
5697 5704 5709 5713 5715 5717 5720 5723 5724 5727 5728 5729 5730 5729 5728 5726 5725 5725 5723 5723 5722 5719 5715 5712 5710 5706 5704 5702 5699 5695 5692 5689 5687 5685 5682 5676 5674 5670 5668 5663 5659 5655 5654 5652
5691 5697 5698 5701 5708 5710 5711 5712 5715 5717 5719 5722 5723 5721 5720 5719 5718 5717 5715 5714 5712 5711 5708 5705 5702 5699 5696 5694 5690 5686 5683 5681 5680 5678 5674 5670 5666 5662 5656 5653 5648 5644 5641 5639
5690 5694 5696 5698 5701 5704 5704 5706 5708 5709 5710 5712 5715 5715 5713 5711 5711 5709 5708 5706 5704 5703 5700 5697 5694 5691 5689 5686 5682 5678 5675 5672 5671 5670 5666 5662 5659 5655 5651 5646 5640 5636 5632 5629
5683 5684 5684 5688 5691 5695 5698 5700 5702 5703 5704 5705 5705 5705 5704 5703 5702 5700 5699 5698 5697 5694 5691 5689 5686 5684 5682 5679 5675 5670 5668 5665 5662 5660 5658 5655 5652 5649 5646 5643 5638 5635 5628 5622
5675 5678 5681 5684 5686 5688 5690 5692 5691 5692 5693 5694 5695 5695 5694 5693 5692 5691 5691 5690 5688 5685 5683 5681 5678 5676 5675 5672 5667 5663 5660 5657 5654 5652 5650 5647 5644 5642 5640 5636 5633 5630 5627 5621
5669 5673 5675 5676 5677 5680 5682 5683 5683 5683 5684 5684 5684 5684 5685 5684 5683 5683 5682 5681 5678 5676 5674 5672 5669 5668 5667 5664 5660 5656 5652 5647 5643 5643 5642 5640 5637 5635 5632 5629 5626 5624 5621 5617
5661 5663 5666 5668 5670 5673 5675 5676 5676 5676 5677 5677 5676 5676 5676 5675 5673 5672 5671 5671 5669 5667 5666 5664 5661 5660 5658 5655 5652 5650 5647 5642 5635 5636 5636 5634 5631 5628 5625 5622 5619 5617 5614 5608
5659 5661 5663 5664 5665 5666 5667 5668 5669 5669 5669 5669 5669 5668 5667 5665 5664 5663 5663 5662 5659 5658 5658 5656 5654 5651 5649 5647 5644 5643 5640 5637 5634 5631 5628 5626 5623 5620 5616 5614 5612 5608 5605 5601
5654 5656 5658 5659 5661 5661 5661 5662 5662 5663 5662 5662 5660 5659 5658 5657 5656 5655 5655 5653 5650 5648 5648 5647 5641 5641 5641 5639 5635 5633 5632 5630 5627 5624 5620 5614 5613 5611 5608 5606 5604 5601 5598 5595
5648 5649 5650 5651 5653 5654 5654 5654 5655 5654 5654 5654 5652 5650 5648 5647 5647 5646 5644 5644 5644 5643 5641 5638 5635 5634 5632 5630 5626 5628 5626 5623 5619 5616 5612 5610 5607 5603 5601 5599 5596 5594 5591 5588
5640 5641 5642 5643 5643 5645 5646 5646 5646 5645 5644 5644 5642 5640 5639 5639 5638 5637 5636 5635 5636 5634 5633 5628 5628 5627 5625 5621 5617 5620 5618 5615 5612 5609 5606 5603 5599 5596 5594 5590 5588 5586 5582 5579
5633 5634 5634 5634 5635 5636 5637 5638 5637 5637 5636 5635 5634 5633 5631 5629 5629 5628 5628 5628 5628 5624 5624 5625 5623 5618 5615 5611 5613 5612 5610 5607 5604 5601 5598 5595 5592 5589 5586 5582 5580 5577 5574 5570
5626 5627 5627 5627 5627 5628 5629 5629 5629 5629 5628 5627 5626 5625 5624 5623 5624 5622 5622 5622 5622 5616 5616 5617 5611 5606 5603 5605 5606 5604 5602 5599 5596 5593 5591 5588 5586 5583 5579 5575 5572 5569 5566 5562
5619 5619 5620 5621 5621 5621 5621 5622 5622 5622 5621 5620 5619 5618 5617 5617 5617 5617 5616 5612 5610 5607 5609 5605 5600 5597 5594 5599 5599 5597 5594 5592 5589 5586 5584 5582 5580 5577 5573 5569 5565 5562 5558 5555
5613 5614 5614 5615 5615 5617 5617 5616 5616 5616 5616 5615 5614 5613 5613 5612 5611 5610 5608 5606 5602 5600 5601 5598 5593 5591 5592 5593 5592 5589 5587 5584 5582 5579 5577 5575 5572 5569 5565 5561 5558 5555 5551 5548
5609 5610 5611 5612 5612 5612 5614 5613 5613 5612 5612 5610 5610 5609 5608 5606 5604 5602 5600 5599 5597 5594 5594 5594 5591 5587 5589 5588 5585 5582 5579 5576 5574 5573 5571 5568 5565 5562 5558 5555 5551 5549 5546 5542
5605 5606 5607 5608 5609 5609 5609 5608 5607 5606 5606 5604 5604 5603 5601 5600 5599 5598 5596 5595 5593 5592 5590 5589 5587 5585 5583 5581 5578 5576 5573 5571 5568 5566 5564 5562 5559 5556 5552 5548 5546 5544 5541 5538